{"data":{"norad_id":62100,"intl_designator":"2024-220N","name":"STARLINK-33566","alt_names":[],"object_type":"PAYLOAD","status":"ACTIVE","operator":null,"country":"US","launch_date":"2024-11-25","launch_site_code":"AFETR","launch_vehicle":null,"mission":null,"orbit_class":"UNKNOWN","rcs_meters":null,"size_class":null,"mass_kg":null,"dimensions":null,"purposes":["comms"],"wikipedia_slug":null,"has_3d_model":false,"image_url":null,"decayed_at":null,"tle_current":{"epoch":"2026-09-21T01:58:32.924064Z","epoch_age_seconds":131788,"freshness":"FRESH","line1":"1 62100U 24220N   26264.08232551  .00010748  00000+0  39943-3 0  9995","line2":"2 62100  43.0000 167.3592 0001370 272.5135  87.5559 15.27588283103245","mean_motion":15.27588283,"eccentricity":0.000137,"inclination_deg":43,"raan_deg":167.3592,"arg_perigee_deg":272.5135,"mean_anomaly_deg":87.5559,"bstar":0.00039943,"rev_number":10324,"period_min":94.266237573649,"perigee_km":482.08431477267,"apogee_km":483.96427296719,"semimajor_km":6861.1612938699,"source":"CELESTRAK","updated_at":"2026-09-22T09:00:49.498588Z"}}}